Location: Jelcz-Laskowice
(51.0309°N, 17.3312°E)
Time: 18:09:10
(UTC+01:00)

ISS - Visible Passes

Search period start: 16 January 2019 00:00
Search period end: 26 January 2019 00:00
Orbit: 404 x 407 km, 51.6° (Epoch: 17 January)

Date Brightness Start Highest point End Pass type
(mag) Time Alt. Az. Time Alt. Az. Time Alt. Az.
23 Jan -1.7 18:36:45 10° SSW 18:38:06 18° S 18:38:06 18° S visible
24 Jan -1.7 17:45:45 10° S 17:47:37 14° SE 17:48:29 13° ESE visible
24 Jan -1.0 19:20:21 10° SW 19:21:11 16° SW 19:21:11 16° SW visible
25 Jan -3.0 18:28:37 10° SW 18:31:29 37° SSE 18:31:29 37° SSE visible
